This is the latest recevied weather packets stored in our database for station/object IZ3LSV-13. If no packets are shown the sender has not sent any weather packets the latest 10 day(s).
| Time | Temp. | Humidity | Pressure | Rain* | Wind** | Luminosity | Snow |
|---|---|---|---|---|---|---|---|
| 1777701208 | 26.11° C | - | 1122.5 hPa | 0 mm | - | - | - |
| 1777700903 | 26.67° C | - | 1122.4 hPa | 0 mm | - | - | - |
| 1777700292 | 27.22° C | - | 1122.4 hPa | 0 mm | - | - | - |
| 1777699986 | 26.67° C | - | 1122.3 hPa | 0 mm | - | - | - |
| 1777699681 | 26.11° C | - | 1122.3 hPa | 0 mm | - | - | - |
| 1777699376 | 25.56° C | - | 1122.4 hPa | 0 mm | - | - | - |
| 1777699070 | 25° C | - | 1122.4 hPa | 0 mm | - | - | - |
| 1777698765 | 23.89° C | - | 1122.5 hPa | 0 mm | - | - | - |
| 1777698459 | 23.33° C | - | 1122.5 hPa | 0 mm | - | - | - |
| 1777698154 | 22.22° C | - | 1122.4 hPa | 0 mm | - | - | - |
| 1777697848 | 21.11° C | - | 1122.4 hPa | 0 mm | - | - | - |
| 1777697543 | 19.44° C | - | 1122.5 hPa | 0 mm | - | - | - |
| 1777697237 | 17.78° C | - | 1122.4 hPa | 0 mm | - | - | - |
| 1777696932 | 16.67° C | - | 1122.4 hPa | 0 mm | - | - | - |
| 1777696627 | 15.56° C | - | 1122.5 hPa | 0 mm | - | - | - |
| 1777696321 | 15° C | - | 1122.5 hPa | 0 mm | - | - | - |
| 1777696016 | 14.44° C | - | 1122.5 hPa | 0 mm | - | - | - |
| 1777695711 | 13.89° C | - | 1122.5 hPa | 0 mm | - | - | - |
| 1777695405 | 13.89° C | - | 1122.5 hPa | 0 mm | - | - | - |
| 1777695100 | 13.89° C | - | 1122.6 hPa | 0 mm | - | - | - |
| 1777694794 | 13.89° C | - | 1122.4 hPa | 0 mm | - | - | - |
| 1777694489 | 13.89° C | - | 1122.6 hPa | 0 mm | - | - | - |
| 1777694184 | 13.89° C | - | 1122.4 hPa | 0 mm | - | - | - |
| 1777694041 | 13.89° C | - | 1122.3 hPa | 0 mm | - | - | - |
| 1777693910 | 13.89° C | - | 1122.5 hPa | 0 mm | - | - | - |
* Rain latest hour (hover to see other rain measurements)
** Current wind speed in m/s (hover to see current wind gust speed)